KINEIS-4E

Last updated on Fri Sep 11 2026 00:02:53 GMT+0000 (Coordinated Universal Time)

1 63300U 25056A 26253.60840097 .00001035 00000+0 17141-3 0 9997 2 63300 97.9133 15.1798 0000792 188.4765 171.6430 14.72298272 79691
UTC large
Height (km)
Speed (km/s)
/
Latitude / Longitude
Inclination (degrees)
Orbital Period (minutes)
Azimuth
Elevation
Range (km)
Doppler Factor

Next 0 passes for location: London (51.5072 / 0.1276)

No passes found over London.
KINEIS-4E